Hourly Data Report for October 06, 2017

All times are specified in Local Standard Time (LST). Add 1 hour to adjust for Daylight Saving Time where and when it is observed.

BATHURST A
NEW BRUNSWICK

47°37'47.000" N
65°44'20.000" W
58.80 m
8100505
71574
ZBF

Download Data

Hourly Data (October 2017)
Hourly Data Report for October 6, 2017
Temp Definition
°C
Dew Point Temp Definition
°C
Rel Hum Definition
%
Wind Dir Definition
10's deg

Wind Spd Definition
km/h
Visibility Definition
km
Stn Press Definition
kPa
Hmdx Definition


Wind Chill Definition


Weather Definition


TIME
00:00 Legend Double Dagger 11.1 9.1 87 32 7 24.1 100.33     LegendNANA
01:00 Legend Double Dagger 10.6 8.3 85 26 10 24.1 100.39     LegendNANA
02:00 Legend Double Dagger 9.0 7.9 93 19 8 24.1 100.37     Mainly Clear
03:00 Legend Double Dagger 7.3 6.4 94 17 4 24.1 100.40     LegendNANA
04:00 Legend Double Dagger 6.5 5.5 93 25 8 24.1 100.46     LegendNANA
05:00 Legend Double Dagger 8.0 5.7 85 26 16 19.3 100.51     Clear
06:00 Legend Double Dagger 6.9 4.9 87 25 14 24.1 100.58     LegendNANA
07:00 Legend Double Dagger 6.6 4.9 89 26 14 24.1 100.64     LegendNANA
08:00 Legend Double Dagger 8.9 5.4 79 27 16 24.1 100.73     Mostly Cloudy
09:00 Legend Double Dagger 11.4 5.5 67 27 20 24.1 100.77     LegendNANA
10:00 Legend Double Dagger 12.6 5.2 61 27 21 24.1 100.77     LegendNANA
11:00 Legend Double Dagger 13.4 4.1 53 26 20 24.1 100.74     Mostly Cloudy
12:00 Legend Double Dagger 14.4 3.4 48 28 18 24.1 100.70     LegendNANA
13:00 Legend Double Dagger 15.1 3.0 44 29 21 24.1 100.65     LegendNANA
14:00 Legend Double Dagger 14.8 3.0 45 27 15 24.1 100.61     Mostly Cloudy
15:00 Legend Double Dagger 14.4 4.3 51 32 13 24.1 100.63     LegendNANA
16:00 Legend Double Dagger 14.4 4.1 50 28 9 24.1 100.68     LegendNANA
17:00 Legend Double Dagger 13.7 3.6 50 26 14 24.1 100.64     Clear
18:00 Legend Double Dagger 11.1 4.1 62 28 6 24.1 100.76     LegendNANA
19:00 Legend Double Dagger 6.5 4.8 89 24 4 24.1 100.82     LegendNANA
20:00 Legend Double Dagger 4.9 3.7 92 26 5 24.1 100.92     Clear
21:00 Legend Double Dagger 4.6 3.6 93 23 7 24.1 100.97     LegendNANA
22:00 Legend Double Dagger 3.5 2.4 92 24 4 24.1 101.06     LegendNANA
23:00 Legend Double Dagger 2.5 2.0 96 20 3 24.1 101.12     Clear

Notes on Data Quality.

Legend

  • E = Estimated
  • M = Missing
  • NA = Not Available
  • ‡ = Partner data that is not subject to review by the National Climate Archives
Date modified: